This is the latest recevied weather packets stored in our database for station/object DD3FC-1. If no packets are shown the sender has not sent any weather packets the latest 10 day(s).
| Time | Temp. | Humidity | Pressure | Rain* | Wind** | Luminosity | Snow |
|---|---|---|---|---|---|---|---|
| 1777224066 | 18.89° C | 28% | 1022.8 hPa | 0 mm | - | - | - |
| 1777223467 | 19.44° C | 28% | 1022.8 hPa | 0 mm | - | - | - |
| 1777222866 | 19.44° C | 28% | 1022.8 hPa | 0 mm | - | - | - |
| 1777222266 | 20° C | 27% | 1022.6 hPa | 0 mm | - | - | - |
| 1777221667 | 20° C | 27% | 1022.7 hPa | 0 mm | - | - | - |
| 1777221067 | 20.56° C | 27% | 1022.7 hPa | 0 mm | - | - | - |
| 1777220467 | 20.56° C | 28% | 1022.9 hPa | 0 mm | - | - | - |
| 1777219867 | 21.11° C | 28% | 1022.9 hPa | 0 mm | - | - | - |
| 1777219267 | 21.11° C | 29% | 1022.9 hPa | 0 mm | - | - | - |
| 1777218667 | 21.67° C | 29% | 1023 hPa | 0 mm | - | - | - |
| 1777218067 | 21.67° C | 30% | 1023.1 hPa | 0 mm | - | - | - |
| 1777217467 | 21.67° C | 30% | 1023.1 hPa | 0 mm | - | - | - |
| 1777216867 | 22.22° C | 30% | 1023.2 hPa | 0 mm | - | - | - |
| 1777216267 | 23.33° C | 30% | 1023.3 hPa | 0 mm | - | - | - |
| 1777215667 | 22.78° C | 30% | 1023.4 hPa | 0 mm | - | - | - |
| 1777215067 | 22.78° C | 30% | 1023.4 hPa | 0 mm | - | - | - |
| 1777214467 | 23.33° C | 28% | 1023.5 hPa | 0 mm | - | - | - |
| 1777213867 | 23.33° C | 30% | 1023.4 hPa | 0 mm | - | - | - |
| 1777213267 | 23.33° C | 30% | 1023.5 hPa | 0 mm | - | - | - |
| 1777212667 | 23.33° C | 31% | 1023.5 hPa | 0 mm | - | - | - |
| 1777212067 | 23.33° C | 31% | 1023.7 hPa | 0 mm | - | - | - |
| 1777211467 | 22.78° C | 31% | 1023.7 hPa | 0 mm | - | - | - |
| 1777210867 | 23.33° C | 31% | 1023.9 hPa | 0 mm | - | - | - |
| 1777210267 | 22.78° C | 32% | 1023.9 hPa | 0 mm | - | - | - |
| 1777209667 | 22.78° C | 31% | 1024 hPa | 0 mm | - | - | - |
* Rain latest hour (hover to see other rain measurements)
** Current wind speed in m/s (hover to see current wind gust speed)